User: anonymous   Login
Location: Columbia
(38.9520°N, 92.3340°W)
Time: 10:45:39
(UTC-06:00)
Language:

FENGYUN 3A - Orbit

View from above orbital plane
View from above orbital plane
View from above satellite
View from above satellite

Ground track
Ground track

The orbit data is extracted from the following two-line orbital elements,

1 32958U 08026A   17023.09678712 -.00000004  00000-0  17854-4 0  9990
2 32958  98.4253  58.9055 0009546 348.6934  11.4022 14.19647129448755
Epoch (UTC): 23 January 2017 02:19:22
Eccentricity: 0.0009546
inclination: 98.4253°
perigee height: 819 km
apogee height: 833 km
right ascension of ascending node: 58.9055°
argument of perigee: 348.6934°
revolutions per day: 14.19647129
mean anomaly at epoch: 11.4022°
orbit number at epoch: 44875

The dashed part of the orbit path shows where the satellite is in the earth's shadow,  

DLR